Weather History for Wichita, KS

Change the Weather History Date:

Sunday, March 23, 2014

  Actual Average Record
Temperature  
Mean Temperature 36 °F 49 °F  
Max Temperature 47 °F 60 °F 84 °F (1967)
Min Temperature 25 °F 37 °F 14 °F (1974)
Degree Days  
Heating Degree Days 29 16  
Month to date heating degree days 555 455  
Since 1 July heating degree days 4474 4095  
Cooling Degree Days 0 0  
Month to date cooling degree days 0 0  
Year to date cooling degree days 0 0  
Moisture  
Dew Point 18 °F    
Average Humidity 53    
Maximum Humidity 75    
Minimum Humidity 31    
Precipitation  
Precipitation 0.00 in 0.09 in 2.13 in (1984)
Month to date precipitation 0.45 1.91  
Year to date precipitation 1.44 3.92  
Snow  
Snow 0.00 in 0.00 in 5.50 in (1912)
Month to date snowfall 3.2 1.8  
Since 1 July snowfall 22.7 14.2  
Snow Depth 0.00 in    
Sea Level Pressure  
Sea Level Pressure 30.44 in    
Wind  
Wind Speed 10 mph (NE)    
Max Wind Speed 20 mph    
Max Gust Speed 28 mph    
Visibility 10 miles    
Events      
T = Trace of Precipitation, MM = Missing Value Source: NWS Daily Summary

Daily Weather History Graph

Daily Weather History Graph

Search for Another Location

Airport:

Trip Planner

Search our weather history database for the weather conditions in past years. The results will help you decide how hot, cold, wet, or windy it might be!

Date:

Astronomy

Mar. 23, 2014 Rise Set
Actual Time 7:28 AM CDT 7:44 PM CDT
Civil Twilight 7:02 AM CDT 8:10 PM CDT
Nautical Twilight 6:31 AM CDT 8:41 PM CDT
Astronomical Twilight 6:00 AM CDT 9:12 PM CDT
Moon 1:57 AM CDT (3/23) 12:16 PM CDT (3/23)
Length of Visible Light 13h 08m
Length of Day
12h 15m
Waning Gibbous, 54% of the Moon is Illuminated
Mar 23
Waning Gibbous
Mar 23
Last Quarter
Mar 30
New
Apr 7
First Quarter
Apr 15
Full

Hourly Weather History & Observations

Time (CDT) Temp. Windchill Dew Point Humidity Pressure Visibility Wind Dir Wind Speed Gust Speed Precip Events Conditions
12:53 AM 30.0 °F 17.9 °F 14.0 °F 51% 30.47 in 10.0 mi North 18.4 mph 25.3 mph N/A   Mostly Cloudy
1:53 AM 28.9 °F 16.1 °F 18.0 °F 64% 30.49 in 10.0 mi North 19.6 mph 26.5 mph N/A   Mostly Cloudy
2:53 AM 28.0 °F 15.3 °F 19.0 °F 69% 30.48 in 10.0 mi North 18.4 mph 27.6 mph N/A   Mostly Cloudy
3:46 AM 27.0 °F 15.2 °F 19.0 °F 72% 30.47 in 10.0 mi NNE 15.0 mph - N/A   Mostly Cloudy
3:53 AM 27.0 °F 13.5 °F 19.0 °F 72% 30.49 in 10.0 mi NNE 19.6 mph - N/A   Mostly Cloudy
4:53 AM 27.0 °F 13.5 °F 19.0 °F 72% 30.48 in 10.0 mi NNE 19.6 mph 25.3 mph N/A   Mostly Cloudy
5:53 AM 27.0 °F 14.7 °F 19.0 °F 72% 30.50 in 10.0 mi NNE 16.1 mph - N/A   Overcast
6:53 AM 25.0 °F 11.7 °F 18.0 °F 75% 30.53 in 10.0 mi NNE 17.3 mph - N/A   Overcast
7:34 AM 25.0 °F 13.6 °F 19.0 °F 78% 30.51 in 10.0 mi NNE 12.7 mph 21.9 mph N/A   Overcast
7:53 AM 25.0 °F 13.1 °F 18.0 °F 75% 30.54 in 9.0 mi NNE 13.8 mph - N/A   Mostly Cloudy
8:04 AM 25.0 °F 13.6 °F 18.0 °F 75% 30.51 in 9.0 mi NNE 12.7 mph - N/A   Scattered Clouds
8:53 AM 26.1 °F 15.0 °F 18.0 °F 71% 30.55 in 10.0 mi North 12.7 mph - N/A   Scattered Clouds
9:53 AM 28.9 °F 18.6 °F 15.1 °F 56% 30.55 in 10.0 mi NNE 12.7 mph - N/A   Partly Cloudy
10:53 AM 33.1 °F 23.4 °F 14.0 °F 46% 30.55 in 10.0 mi NE 13.8 mph - N/A   Clear
11:53 AM 35.1 °F 30.1 °F 16.0 °F 46% 30.53 in 10.0 mi Variable 5.8 mph - N/A   Partly Cloudy
12:53 PM 37.9 °F 30.9 °F 17.1 °F 43% 30.51 in 10.0 mi North 10.4 mph - N/A   Partly Cloudy
1:53 PM 39.9 °F 33.9 °F 18.0 °F 41% 30.46 in 10.0 mi NNE 9.2 mph - N/A   Partly Cloudy
2:53 PM 43.0 °F - 18.0 °F 37% 30.41 in 10.0 mi Calm Calm - N/A   Partly Cloudy
3:53 PM 43.0 °F 41.3 °F 17.1 °F 35% 30.37 in 10.0 mi Variable 3.5 mph - N/A   Scattered Clouds
4:53 PM 46.0 °F 44.8 °F 17.1 °F 31% 30.34 in 10.0 mi East 3.5 mph - N/A   Scattered Clouds
5:53 PM 46.0 °F - 17.1 °F 31% 30.32 in 10.0 mi Calm Calm - N/A   Partly Cloudy
6:53 PM 44.1 °F 40.8 °F 18.0 °F 35% 30.30 in 10.0 mi South 5.8 mph - N/A   Partly Cloudy
7:53 PM 39.0 °F 34.8 °F 18.0 °F 43% 30.30 in 10.0 mi South 5.8 mph - N/A   Partly Cloudy
8:53 PM 37.9 °F 32.7 °F 18.0 °F 45% 30.28 in 10.0 mi SSE 6.9 mph - N/A   Clear
9:53 PM 36.0 °F 30.3 °F 19.0 °F 50% 30.29 in 10.0 mi SE 6.9 mph - N/A   Clear
10:53 PM 33.1 °F 27.7 °F 18.0 °F 54% 30.29 in 10.0 mi SSE 5.8 mph - N/A   Clear
11:53 PM 33.1 °F 28.7 °F 18.0 °F 54% 30.29 in 10.0 mi SE 4.6 mph - N/A   Clear